Retour au catalogue

FENGYUN 1C DEB

ActifPO
NORAD 35088·DEBRIS·🇨🇳 China

Lancé May 10, 1999 depuis Taiyuan Satellite Launch Center

Loading…

Prochains Passages (prochaines 24 heures)

TLE

FraisSource: Space-Track

Époque: Sep 13, 2026, 09:51 UTC

1 35088U 99025DJQ 26256.41105284  .00005494  00000-0  19656-2 0  9996
2 35088  94.6208 305.2746 0251878  65.2671 297.4504 14.17958046626853

Suivez FENGYUN 1C DEB en temps réel avec AllMySat

Download on the App Store